Waarnemingen

Advertentie
Mijn weer
Altnaharra, Groot Brittannië (3044): temperatuur & dauwpunt: 29.06.2020 06:00:00 - 05.07.2020 06:00:00 (BST)Altnaharra, Groot Brittannië (3044): temperatuur -20cm & temperatuur -100cm: 29.06.2020 06:00:00 - 05.07.2020 06:00:00 (BST)Altnaharra, Groot Brittannië (3044): windsnelheid: 29.06.2020 06:00:00 - 05.07.2020 06:00:00 (BST)Altnaharra, Groot Brittannië (3044): windrichting: 29.06.2020 06:00:00 - 05.07.2020 06:00:00 (BST)Altnaharra, Groot Brittannië (3044): luchtdruk: 29.06.2020 06:00:00 - 05.07.2020 06:00:00 (BST)Altnaharra, Groot Brittannië (3044): zicht: 29.06.2020 06:00:00 - 05.07.2020 06:00:00 (BST)Altnaharra, Groot Brittannië (3044): Zonneschijnduur: 29.06.2020 06:00:00 - 05.07.2020 06:00:00 (BST)Altnaharra, Groot Brittannië (3044): neerslag: 29.06.2020 06:00:00 - 05.07.2020 06:00:00 (BST)
Datum & Tijd tt [°C] td [°C] tt -20cm [°C] tt -100cm [°C] ff [km/u] ff [kn] dd ppp [hPa] vv [km] sd [min] rr [mm]
05.07.2020 06:00:00 9,0 8,5 - - 4 2 ZW 992,4 50 0 -
05.07.2020 05:00:00 8,4 8,1 - - 2 1 W 992,0 50 0 0,2
05.07.2020 04:00:00 8,8 8,5 - - 8 4 W 992,0 25 0 0,8
05.07.2020 03:00:00 8,8 8,5 - - 8 4 WZW 992,3 16 0 0,4
05.07.2020 02:00:00 8,9 8,6 - - 2 1 NNW 992,6 6 0 1,6
05.07.2020 01:00:00 9,0 8,7 - - 4 2 WNW 993,6 10 - 4,0
05.07.2020 00:00:00 9,4 8,9 - - 5 3 WNW 994,7 10 0 3,2
04.07.2020 23:00:00 9,6 8,9 - - 2 1 OZO 995,4 13 0 1,0
04.07.2020 22:00:00 10,1 8,6 - - 9 5 ZO 997,0 11 0 0,4
04.07.2020 21:00:00 11,0 8,4 - - 8 4 ZZO 997,4 50 0 0,0
04.07.2020 20:00:00 12,1 8,0 - - 11 6 Z 998,8 50 0 0,0
04.07.2020 19:00:00 13,2 7,4 - - 9 5 ZZW 999,1 50 6 0,0
04.07.2020 18:00:00 13,1 7,9 - - 11 6 Z 999,5 50 12 0,0
04.07.2020 17:00:00 13,6 8,3 - - 11 6 ZZW 1000,5 40 0 0,0
04.07.2020 16:00:00 13,2 8,8 - - 16 9 WZW 1001,1 45 0 0,0
04.07.2020 15:00:00 12,4 8,6 - - 11 6 ZZW 1001,3 45 0 0,0
04.07.2020 14:00:00 12,4 9,0 - - 9 5 ZW 1001,3 45 0 0,0
04.07.2020 13:00:00 11,3 9,4 - - 11 6 WZW 1001,6 30 0 0,2
04.07.2020 12:00:00 11,8 9,8 - - 11 6 Z 1001,5 45 0 0,0
04.07.2020 11:00:00 11,3 9,3 - - 9 5 Z 1001,6 30 0 0,2
04.07.2020 10:00:00 10,9 9,4 14,2 12,7 9 5 Z 1001,6 16 0 0,4
04.07.2020 09:00:00 11,2 8,3 - - 11 6 ZZO 1001,8 50 0 0,0
04.07.2020 08:00:00 11,8 9,3 - - 9 5 ZZO 1001,3 45 0 0,0
04.07.2020 07:00:00 11,1 8,2 - - 11 6 Z 1001,8 45 0 0,0
04.07.2020 06:00:00 10,5 7,4 - - 9 5 Z 1001,9 50 0 0,0
04.07.2020 05:00:00 10,5 6,9 - - 9 5 ZZW 1001,9 45 0 0,0
04.07.2020 04:00:00 10,4 7,8 - - 8 4 Z 1002,0 50 0 0,0
04.07.2020 03:00:00 8,9 6,9 - - 5 3 ZO 1002,1 50 0 0,0
04.07.2020 02:00:00 9,7 6,2 - - 4 2 ZW 1002,0 50 0 0,0
04.07.2020 01:00:00 9,4 7,0 - - 9 5 WZW 1002,0 35 - 0,0
04.07.2020 00:00:00 11,0 7,2 - - 5 3 ZZW 1002,0 50 0 0,0
03.07.2020 23:00:00 11,6 7,5 - - 9 5 ZZW 1002,0 50 0 0,0
03.07.2020 22:00:00 11,9 8,3 - - 11 6 ZZW 1001,4 50 0 0,0
03.07.2020 21:00:00 12,2 8,6 - - 16 9 ZW 1001,1 50 0 0,0
03.07.2020 20:00:00 13,0 9,4 - - 15 8 ZW 1000,6 50 0 0,0
03.07.2020 19:00:00 12,8 10,5 - - 15 8 ZW 1000,4 35 0 1,2
03.07.2020 18:00:00 12,4 11,0 - - 9 5 ZZW 1000,1 40 0 1,2
03.07.2020 17:00:00 11,6 9,6 - - 5 3 NNW 1000,1 13 0 0,2
03.07.2020 16:00:00 11,8 9,2 - - 5 3 W 1000,5 50 0 0,0
03.07.2020 15:00:00 11,9 8,6 - - 2 1 ZZW 1000,0 20 0 0,0
03.07.2020 14:00:00 11,6 8,5 - - 8 4 NNO 1000,6 8 0 0,0
03.07.2020 13:00:00 11,9 7,1 - - 15 8 OZO 1000,8 50 0 0,0
03.07.2020 12:00:00 11,9 6,0 - - 18 10 OZO 1001,2 35 0 0,0
03.07.2020 11:00:00 12,5 6,7 - - 15 8 OZO 1001,4 40 0 0,0
03.07.2020 10:00:00 12,8 6,2 14,4 12,7 13 7 OZO 1001,9 50 36 0,0
03.07.2020 09:00:00 11,7 5,7 - - 5 3 Z 1002,6 50 6 0,0
03.07.2020 08:00:00 10,5 6,1 - - 5 3 WNW 1003,5 50 0 0,0
03.07.2020 07:00:00 9,3 7,0 - - 8 4 WZW 1004,3 50 0 0,0
03.07.2020 06:00:00 8,3 7,2 - - 2 1 N 1005,0 50 0 0,0
03.07.2020 05:00:00 7,9 6,2 - - 2 1 ONO 1005,7 45 0 0,0
03.07.2020 04:00:00 8,8 5,6 - - 9 5 Z 1006,3 50 0 0,0
03.07.2020 03:00:00 8,4 6,1 - - 2 1 WZW 1007,1 50 0 0,0
03.07.2020 02:00:00 8,2 6,4 - - 4 2 NO 1007,8 50 0 0,0
03.07.2020 01:00:00 8,2 6,3 - - 4 2 O 1008,1 50 - 0,0
03.07.2020 00:00:00 8,8 6,5 - - 4 2 OZO 1008,8 50 0 0,0
02.07.2020 23:00:00 9,0 6,8 - - 4 2 OZO 1009,4 50 0 0,0
02.07.2020 22:00:00 9,6 6,1 - - 4 2 WNW 1009,7 50 0 0,0
02.07.2020 21:00:00 10,3 5,5 - - 9 5 WZW 1009,9 50 0 0,0
02.07.2020 20:00:00 11,0 5,1 - - 15 8 WZW 1010,2 50 6 0,0
02.07.2020 19:00:00 12,0 5,4 - - 18 10 W 1010,2 50 36 0,0
02.07.2020 18:00:00 13,0 4,8 - - 18 10 W 1010,1 45 48 0,0
02.07.2020 17:00:00 13,2 4,9 - - 16 9 WZW 1010,2 50 54 0,0
02.07.2020 16:00:00 13,3 4,2 - - 16 9 WZW 1010,6 45 36 0,0
02.07.2020 15:00:00 12,8 5,7 - - 15 8 W 1010,8 30 6 0,0
02.07.2020 14:00:00 11,9 6,6 - - 22 12 W 1011,1 35 6 0,0
02.07.2020 13:00:00 11,9 4,3 - - 13 7 WZW 1011,1 50 6 0,0
02.07.2020 12:00:00 11,7 4,1 - - 13 7 W 1010,8 50 36 0,0
02.07.2020 11:00:00 10,3 6,9 - - 21 11 W 1011,0 50 6 0,0
02.07.2020 10:00:00 11,4 4,4 14,5 12,7 13 7 WZW 1010,7 35 42 0,0
02.07.2020 09:00:00 10,1 5,8 - - 13 7 W 1010,7 10 6 0,0
02.07.2020 08:00:00 9,1 5,8 - - 11 6 WZW 1010,5 50 0 0,0
02.07.2020 07:00:00 5,3 5,3 - - 4 2 W 1010,6 45 0 0,0
02.07.2020 06:00:00 3,5 3,5 - - 2 1 WNW 1010,3 50 0 0,0
02.07.2020 05:00:00 1,0 0,8 - - 4 2 NW 1010,3 0,5 0 0,0
02.07.2020 04:00:00 1,0 0,6 - - 5 3 NW 1010,4 1,0 0 0,0
02.07.2020 03:00:00 2,6 2,1 - - 5 3 NNW 1010,3 45 0 0,0
02.07.2020 02:00:00 3,9 3,4 - - 2 1 Z 1010,5 35 0 0,0
02.07.2020 01:00:00 4,0 3,4 - - 5 3 WNW 1010,2 50 - 0,0
02.07.2020 00:00:00 4,9 4,0 - - 4 2 WNW 1010,3 40 0 0,0
01.07.2020 23:00:00 6,4 3,8 - - 5 3 N 1009,9 50 0 0,0
01.07.2020 22:00:00 9,3 5,8 - - 8 4 NNW 1009,4 50 6 0,0
01.07.2020 21:00:00 9,8 5,3 - - 13 7 NNW 1008,9 45 0 0,0
01.07.2020 20:00:00 10,2 5,7 - - 18 10 NNW 1008,4 50 18 0,0
01.07.2020 19:00:00 11,5 5,3 - - 18 10 N 1008,2 50 24 0,0
01.07.2020 18:00:00 11,3 5,2 - - 15 8 NNW 1008,2 50 0 0,0
01.07.2020 17:00:00 11,1 6,2 - - 22 12 NNW 1008,3 40 24 0,0
01.07.2020 16:00:00 12,3 5,8 - - 16 9 NNW 1007,8 30 18 0,0
01.07.2020 15:00:00 13,6 7,7 - - 21 11 NNW 1007,4 45 24 0,0
01.07.2020 14:00:00 12,9 6,4 - - 21 11 N 1007,1 35 18 0,0
01.07.2020 13:00:00 11,9 6,7 - - 18 10 NNW 1007,0 35 0 0,0
01.07.2020 12:00:00 12,3 6,4 - - 18 10 N 1006,5 40 12 0,0
01.07.2020 11:00:00 11,3 6,2 - - 15 8 NNW 1006,3 30 0 0,0
01.07.2020 10:00:00 10,5 7,5 14,9 12,7 22 12 N 1006,1 28 0 0,0
01.07.2020 09:00:00 10,3 7,5 - - 5 3 N 1005,9 35 0 0,0
01.07.2020 08:00:00 9,7 7,4 - - 13 7 N 1005,7 35 0 0,0
01.07.2020 07:00:00 9,4 8,0 - - 15 8 N 1005,2 13 0 0,2
01.07.2020 06:00:00 8,9 8,2 - - 16 9 N 1005,1 8 0 0,2
01.07.2020 05:00:00 8,8 8,1 - - 16 9 N 1004,7 14 0 0,0
01.07.2020 04:00:00 9,2 8,5 - - 11 6 NNO 1004,6 16 0 0,0
01.07.2020 03:00:00 9,8 9,3 - - 11 6 N 1004,3 5 0 0,2
01.07.2020 02:00:00 10,0 9,5 - - 13 7 N 1004,3 2,8 0 0,0
01.07.2020 01:00:00 10,2 9,7 - - 15 8 N 1004,1 10 - 0,4
01.07.2020 00:00:00 10,3 9,7 - - 4 2 NW 1004,1 4,3 0 0,0
30.06.2020 23:00:00 10,5 9,3 - - 8 4 WNW 1004,1 3,3 0 0,0
30.06.2020 22:00:00 10,9 9,2 - - 9 5 NW 1003,7 45 0 0,0
30.06.2020 21:00:00 11,2 9,9 - - 13 7 NNW 1003,5 28 0 0,0
30.06.2020 20:00:00 12,3 10,4 - - 15 8 NW 1002,9 5 0 0,0
30.06.2020 19:00:00 13,5 10,9 - - 16 9 NW 1002,4 45 0 0,0
30.06.2020 18:00:00 14,4 10,9 - - 18 10 NNW 1002,0 29 0 0,0
30.06.2020 17:00:00 14,5 10,9 - - 18 10 NW 1001,9 40 6 0,0
30.06.2020 16:00:00 15,4 11,8 - - 18 10 WNW 1001,8 45 12 0,0
30.06.2020 15:00:00 15,3 12,0 - - - - - - 40 - 0,0
30.06.2020 14:00:00 15,0 11,3 - - 15 8 NNW 1001,5 35 - 0,0
30.06.2020 13:00:00 14,5 12,4 - - 13 7 WNW 1001,3 45 - 0,0
30.06.2020 12:00:00 13,6 12,3 - - 11 6 WNW 1000,9 50 - 0,6
30.06.2020 11:00:00 12,9 11,5 - - 15 8 NW 1000,8 9 - 0,0
30.06.2020 10:00:00 13,1 10,9 15,0 12,7 15 8 NW 1000,5 35 - 0,0
30.06.2020 09:00:00 13,0 11,1 - - 16 9 NW 1000,2 30 - 0,0
30.06.2020 08:00:00 12,3 11,5 - - 15 8 NW 999,8 25 - 0,2
30.06.2020 07:00:00 11,9 11,3 - - 13 7 WNW 999,5 10 - 0,4
30.06.2020 06:00:00 11,8 11,2 - - 9 5 WNW 999,1 16 - 0,0
30.06.2020 05:00:00 11,6 11,1 - - 11 6 WNW 999,0 11 - 0,0
30.06.2020 04:00:00 11,6 11,1 - - 8 4 W 998,8 19 - 0,0
30.06.2020 03:00:00 11,6 11,1 - - 13 7 WNW 998,5 17 - 0,0
30.06.2020 02:00:00 11,6 11,0 - - 15 8 NW 998,3 4,1 - 0,4
30.06.2020 01:00:00 11,8 11,3 - - 13 7 NW 998,3 14 - 0,0
30.06.2020 00:00:00 11,7 11,3 - - 16 9 NW 998,1 3,4 - 0,4
29.06.2020 23:00:00 11,7 11,2 - - 11 6 NW 997,7 15 - 0,2
29.06.2020 22:00:00 11,9 11,4 - - 9 5 NW 997,3 8 0 0,4
29.06.2020 21:00:00 12,0 11,6 - - 16 9 NW 996,6 8 0 0,2
29.06.2020 20:00:00 12,3 11,7 - - 15 8 NW 995,9 1,9 0 0,0
29.06.2020 19:00:00 12,8 11,6 - - 15 8 NW 995,3 5 0 0,0
29.06.2020 18:00:00 13,2 11,9 - - 16 9 NW 994,5 30 0 0,0
29.06.2020 17:00:00 13,4 11,6 - - 16 9 NNW 993,9 40 0 0,0
29.06.2020 16:00:00 14,4 12,1 - - 18 10 NW 993,4 24 0 0,0
29.06.2020 15:00:00 13,5 11,7 - - 18 10 WNW 992,9 19 0 0,0
29.06.2020 14:00:00 13,8 12,5 - - 21 11 WNW 992,5 27 0 0,0
29.06.2020 13:00:00 12,8 11,1 - - 16 9 W 992,0 7 0 0,0
29.06.2020 12:00:00 13,4 11,2 - - 18 10 W 991,4 24 0 0,0
29.06.2020 11:00:00 14,2 12,2 - - 11 6 W 990,9 14 0 0,2
29.06.2020 10:00:00 13,4 11,5 15,2 12,7 11 6 W 990,4 30 0 0,2
29.06.2020 09:00:00 12,9 11,5 - - 9 5 WNW 989,7 22 0 0,2
29.06.2020 08:00:00 12,5 11,8 - - 2 1 WZW 989,2 40 0 0,2
29.06.2020 07:00:00 11,8 11,3 - - 4 2 W 988,9 20 0 0,4
29.06.2020 06:00:00 11,5 10,7 - - 4 2 W 988,5 26 0 0,2

tt = temperatuur
td = dauwpunt
tt -20cm = temperatuur -20cm
tt -100cm = temperatuur -100cm
ff = windsnelheid
dd = windrichting
ppp = luchtdruk
vv = zicht
sd = Zonneschijnduur
rr = neerslag

Weerstations in de omgeving